Voltar ao catálogo

STARLINK-31212

AtivoComunicaçõesVLEO
NORAD 58875·PAYLOAD·🇺🇸 United States

Lançado Jan 29, 2024 de Cape Canaveral Space Force Station

Loading…

Próximas Passagens (próximas 24 horas)

TLE

AtualizadoSource: CelesTrak SupGP

Época: Sep 15, 2026, 01:46 UTC

1 58875C 24019Y   26258.07409722 -.00008139  00000+0 -29477-3 0  2585
2 58875  42.9991 259.0288 0001339 263.9937 339.1125 15.27584956    15

Acompanhe STARLINK-31212 em tempo real com AllMySat

Download on the App Store